User: anonymous   Login
Location: M.A.R.S.Observatory
(35.4031°N, 81.5481°W)
Time: 23:46:42
(UTC-04:00)
Language:

SL-8 R/B - Orbit

View from above orbital plane
View from above orbital plane
View from above satellite
View from above satellite

Ground track
Ground track

The orbit data is extracted from the following two-line orbital elements,

1 33066U 08031G   14295.45071961  .00000725  00000-0  15561-3 0  9247
2 33066 048.4436 320.2016 0007828 339.2679 120.9537 14.68920252340303
Epoch (UTC): 22 October 2014 10:49:02
Eccentricity: 0.0007828
inclination: 48.4436°
perigee height: 659 km
apogee height: 670 km
right ascension of ascending node: 320.2016°
argument of perigee: 339.2679°
revolutions per day: 14.68920252
mean anomaly at epoch: 120.9537°
orbit number at epoch: 34030

The dashed part of the orbit path shows where the satellite is in the earth's shadow,  

DLR